Wind_Speed
2 4 6 8 9 12 14 16 16 17 19 20 22 23 24 25 26 28 29 29 29 29 30 30 30 30 30 30 30 30 30 30 30 29 30 29 29 29
2 3 4 6 8 10 11 13 14 16 17 19 21 23 24 25 26 27 29 30 31 31 31 31 32 32 32 32 33 33 33 33 33 32 32 32 32 31
1 2 3 4 6 9 10 11 13 14 15 17 19 21 23 24 25 27 28 30 31 32 32 32 33 34 34 34 34 35 35 35 34 35 35 34 34 34
0 1 2 4 5 7 9 10 11 13 14 15 17 19 20 22 23 24 25 27 29 31 32 33 33 34 35 35 35 36 36 36 37 37 37 37 36 36
1 1 1 3 5 6 8 9 10 11 13 14 15 16 18 20 22 23 24 26 28 29 31 32 33 34 35 36 36 37 37 38 38 38 39 39 39 38
2 2 2 3 4 5 7 8 10 11 12 13 14 15 17 19 21 22 23 25 27 28 30 31 32 33 34 35 36 37 38 39 39 39 40 40 40 40
3 3 3 4 4 5 6 8 9 10 11 12 13 15 16 18 19 20 22 23 25 26 28 29 30 31 32 34 36 37 38 39 39 40 41 41 41 41
4 4 4 5 5 6 7 8 9 10 11 12 13 14 16 17 18 20 21 22 24 25 26 27 28 29 31 32 34 35 36 38 38 40 42 43 43 43
5 5 5 5 6 7 7 8 9 10 11 12 13 13 15 16 18 19 20 22 23 24 25 26 27 28 29 30 31 34 36 37 38 38 40 42 43 44
6 6 6 7 7 7 8 8 9 10 11 12 13 14 14 15 17 18 19 21 22 23 24 26 27 28 29 30 31 32 33 35 36 37 39 40 42 44
8 7 8 8 9 9 9 9 10 11 11 12 13 14 15 16 16 17 18 20 21 22 23 25 27 28 29 30 31 32 34 35 35 36 37 38 39 41
9 9 9 9 10 10 10 11 11 12 12 13 14 14 15 16 17 17 18 19 20 21 22 24 25 26 28 29 30 32 33 34 35 35 36 37 38 39
11 11 11 11 11 11 12 12 13 13 14 14 15 16 16 17 17 18 19 20 20 21 22 23 24 25 26 28 29 30 32 33 34 35 36 37 38 39
13 13 12 12 12 13 13 14 14 15 15 16 16 17 18 18 19 20 20 21 21 22 23 23 24 25 26 27 29 30 31 32 34 35 36 37 38 38
16 15 15 14 14 14 14 15 16 16 17 17 18 19 19 20 20 21 21 22 23 23 24 24 25 26 27 28 29 31 32 32 33 34 35 37 38 39
19 18 18 18 17 17 17 17 17 18 18 19 20 20 21 21 21 22 23 23 24 24 25 26 27 27 28 29 30 31 32 33 34 35 36 37 38 38
22 21 21 20 20 19 19 19 19 19 20 20 21 21 22 22 23 23 24 25 26 27 28 28 28 29 30 31 32 33 34 34 35 35 36 37 38 39
25 24 23 23 22 22 21 21 21 21 21 22 22 23 24 24 25 25 26 27 28 29 30 30 31 31 32 33 33 34 35 35 36 37 37 38 39 40
27 26 25 25 24 24 24 23 23 23 24 24 24 25 26 26 27 28 28 29 30 30 31 32 32 33 34 35 36 36 36 37 37 38 39 39 39 41
29 28 27 27 26 26 25 25 25 25 26 26 26 27 27 28 29 30 30 31 31 32 33 33 34 35 35 36 37 39 39 39 39 40 40 41 42 42
30 30 29 28 28 27 27 27 27 27 27 28 28 29 29 30 30 31 31 32 33 33 34 35 36 36 37 37 38 39 41 42 42 42 42 43 43 44
32 31 30 30 29 29 29 28 28 28 29 29 29 30 31 31 31 32 32 33 34 35 36 37 38 38 39 39 40 40 41 43 44 45 45 45 45 45
33 33 32 31 31 30 30 30 30 30 30 30 30 31 32 32 33 33 34 35 36 37 38 39 40 40 41 42 42 42 43 44 45 46 48 49 49 48
Wind_Direction
162 192 200 205 207 208 209 212 215 219 222 225 228 228 229 230 232 234 233 235 236 237 238 239 239 238 239 240 240 241 242 243 244 246 246 247 249 249
180 196 205 213 208 207 210 214 218 222 226 230 232 231 232 235 235 236 237 239 240 240 240 240 239 239 240 241 242 244 244 245 246 248 248 248 249 250
189 213 218 216 213 213 214 220 223 225 229 233 234 233 234 236 237 238 240 242 243 243 243 242 242 241 242 243 244 245 245 246 248 249 249 250 250 251
301 241 227 223 220 215 218 224 227 229 233 236 235 235 236 237 239 241 243 244 245 244 245 245 245 245 245 245 245 246 247 248 248 249 250 251 252 254
329 294 252 236 229 225 225 229 231 232 235 238 239 238 238 240 243 245 248 248 248 247 246 246 247 248 247 247 247 247 248 249 250 250 250 251 252 253
319 296 278 266 248 242 240 242 242 241 242 244 244 245 247 248 249 251 253 252 251 250 249 249 249 250 248 248 248 249 250 250 251 252 252 252 253 254
316 298 285 277 267 258 253 252 252 251 251 251 251 251 251 252 254 255 257 255 253 252 252 251 251 251 251 250 251 252 253 253 253 253 253 252 253 254
313 305 292 282 275 270 264 261 261 259 256 256 256 255 257 258 260 261 262 259 256 255 255 255 254 254 254 254 254 254 255 255 255 254 254 254 253 254
305 302 298 291 283 279 274 268 266 265 263 263 263 262 262 263 264 264 263 262 258 257 258 259 259 258 258 258 258 258 257 258 259 258 257 255 254 255
299 297 294 291 287 284 280 277 273 272 269 268 267 266 267 267 267 267 266 265 263 261 261 262 261 261 261 261 261 262 262 261 261 262 261 260 259 258
296 292 290 289 287 284 284 285 283 280 276 274 273 273 272 272 272 271 270 268 266 265 264 263 264 264 263 262 263 263 263 264 264 264 263 263 262 262
289 289 289 288 287 287 286 286 286 285 282 279 277 277 276 275 274 274 273 273 272 270 269 267 266 266 267 266 265 265 264 264 264 264 264 264 264 264
284 284 285 286 286 287 288 289 288 287 286 283 281 279 279 278 277 276 275 275 275 275 273 271 269 268 268 268 268 268 267 266 266 265 264 264 264 264
279 281 282 283 284 285 287 289 289 289 288 286 284 283 282 281 280 279 278 277 276 276 276 275 273 272 271 270 269 270 270 269 268 267 267 266 265 264
274 276 278 280 282 284 286 287 289 289 289 288 286 284 284 284 283 282 281 281 280 279 278 277 276 275 274 273 272 272 273 273 272 270 268 268 267 266
271 272 274 276 279 281 284 285 287 288 288 288 287 286 285 285 285 284 284 283 282 282 281 279 278 277 275 275 274 274 274 274 274 273 271 270 270 270
268 270 272 274 276 279 281 283 285 287 288 289 288 287 286 286 286 285 285 285 284 284 284 282 280 278 276 276 276 275 274 274 275 275 274 273 272 272
266 267 269 272 275 277 280 282 284 286 287 289 289 289 288 288 287 287 286 287 286 286 285 284 283 282 280 279 278 277 277 276 276 275 275 274 273 274
264 266 268 270 273 276 278 281 283 285 286 288 289 289 289 289 289 288 288 288 287 287 287 286 285 283 282 282 281 280 279 279 278 277 277 276 274 273
262 264 267 269 271 274 276 279 282 284 286 287 289 290 290 290 290 289 289 288 288 288 288 288 287 286 284 283 283 283 283 282 281 280 279 278 276 275
261 263 265 268 270 273 275 278 281 283 285 286 288 290 291 291 291 291 290 289 289 290 290 290 289 288 287 285 284 284 284 284 283 282 281 280 278 277
259 261 264 267 269 272 274 277 280 282 284 286 288 290 291 292 292 292 291 291 291 291 291 291 290 290 289 288 287 286 285 285 285 284 283 282 280 278
257 260 263 265 268 271 274 276 279 282 284 286 288 290 291 292 292 292 292 293 293 293 293 292 292 291 291 290 289 288 287 286 286 286 285 284 283 281
Height
5781 5782 5783 5785 5786 5788 5790 5793 5796 5798 5801 5803 5806 5808 5810 5813 5816 5819 5822 5824 5827 5830 5832 5834 5837 5839 5841 5843 5846 5848 5850 5852 5853 5855 5857 5858 5860 5861
5781 5782 5783 5783 5785 5786 5788 5790 5793 5795 5797 5799 5801 5803 5806 5808 5811 5813 5816 5818 5821 5823 5825 5828 5830 5832 5835 5837 5839 5841 5843 5845 5847 5848 5850 5852 5853 5854
5781 5781 5782 5782 5783 5785 5786 5788 5789 5791 5793 5794 5796 5798 5800 5803 5805 5807 5809 5812 5814 5816 5818 5820 5823 5825 5827 5829 5831 5833 5835 5837 5839 5841 5843 5844 5846 5847
5781 5781 5781 5781 5782 5783 5784 5785 5786 5788 5789 5790 5792 5793 5795 5797 5799 5801 5803 5805 5807 5809 5811 5813 5815 5817 5819 5821 5823 5825 5827 5829 5831 5832 5834 5836 5838 5839
5780 5780 5780 5780 5781 5781 5782 5783 5783 5785 5786 5786 5787 5789 5790 5792 5793 5795 5796 5798 5799 5801 5803 5805 5807 5809 5811 5812 5814 5817 5818 5820 5822 5823 5825 5826 5828 5829
5780 5779 5779 5779 5779 5779 5780 5780 5781 5782 5782 5783 5784 5784 5785 5787 5788 5789 5790 5791 5792 5793 5795 5797 5798 5800 5802 5804 5806 5807 5809 5810 5812 5813 5815 5816 5818 5819
5779 5778 5778 5778 5778 5778 5778 5778 5778 5778 5779 5779 5780 5781 5781 5782 5783 5783 5784 5784 5785 5786 5787 5789 5790 5791 5793 5794 5796 5797 5799 5800 5802 5803 5804 5806 5807 5808
5778 5777 5777 5776 5776 5775 5775 5775 5775 5775 5776 5776 5776 5777 5777 5777 5777 5777 5777 5778 5778 5780 5780 5781 5782 5783 5784 5785 5786 5787 5789 5790 5791 5792 5793 5795 5796 5797
5776 5775 5775 5774 5773 5773 5773 5772 5772 5772 5772 5772 5772 5772 5772 5772 5772 5772 5771 5771 5772 5772 5773 5773 5774 5775 5776 5776 5777 5778 5779 5780 5780 5781 5782 5783 5784 5785
5774 5773 5773 5772 5771 5771 5770 5770 5769 5769 5768 5768 5768 5768 5767 5767 5767 5766 5766 5765 5765 5766 5766 5766 5766 5767 5767 5768 5768 5769 5769 5769 5770 5770 5771 5772 5773 5773
5772 5771 5770 5769 5768 5768 5767 5767 5766 5765 5765 5764 5763 5763 5762 5762 5761 5761 5760 5760 5759 5759 5759 5759 5759 5759 5759 5759 5759 5759 5760 5760 5760 5760 5760 5761 5761 5762
5769 5768 5767 5766 5765 5764 5764 5763 5762 5761 5761 5760 5759 5758 5758 5757 5756 5755 5754 5754 5753 5752 5752 5752 5751 5751 5751 5751 5751 5751 5750 5750 5750 5750 5750 5750 5750 5751
5765 5764 5763 5762 5761 5760 5760 5759 5758 5757 5756 5755 5754 5753 5752 5751 5751 5750 5749 5748 5747 5746 5746 5745 5744 5744 5743 5743 5742 5741 5741 5741 5741 5740 5740 5740 5740 5740
5760 5760 5759 5758 5757 5756 5755 5754 5753 5752 5751 5750 5749 5748 5747 5746 5745 5744 5743 5742 5741 5740 5739 5738 5737 5737 5736 5735 5734 5733 5732 5732 5731 5731 5730 5730 5729 5729
5755 5755 5754 5753 5752 5751 5750 5749 5748 5747 5746 5745 5743 5742 5741 5740 5739 5737 5736 5735 5734 5733 5732 5731 5730 5729 5728 5727 5726 5725 5724 5722 5722 5721 5720 5719 5718 5718
5749 5748 5748 5747 5747 5746 5745 5744 5742 5741 5740 5739 5737 5736 5735 5733 5732 5731 5729 5728 5727 5725 5724 5723 5722 5721 5719 5718 5717 5716 5715 5714 5712 5711 5710 5709 5708 5707
5741 5741 5741 5741 5740 5739 5738 5737 5736 5735 5733 5732 5731 5729 5728 5726 5725 5723 5722 5720 5719 5717 5716 5715 5713 5712 5710 5709 5708 5707 5705 5704 5703 5701 5700 5699 5697 5696
5733 5733 5733 5733 5733 5732 5731 5730 5729 5728 5726 5725 5723 5722 5720 5719 5717 5716 5714 5712 5711 5709 5707 5705 5704 5702 5701 5699 5698 5696 5695 5693 5692 5690 5689 5688 5687 5684
5724 5724 5725 5724 5724 5724 5723 5722 5721 5720 5719 5717 5716 5714 5712 5711 5709 5707 5705 5704 5702 5700 5698 5696 5694 5692 5690 5688 5686 5684 5683 5682 5680 5678 5677 5676 5675 5673
5714 5715 5715 5715 5715 5715 5714 5714 5713 5712 5710 5709 5707 5706 5704 5702 5700 5698 5696 5694 5692 5690 5688 5686 5684 5682 5680 5678 5675 5672 5670 5669 5667 5666 5664 5663 5661 5660
5704 5705 5705 5706 5706 5706 5705 5705 5704 5703 5702 5700 5699 5697 5695 5693 5691 5689 5686 5684 5682 5680 5677 5675 5672 5671 5668 5666 5664 5661 5658 5655 5654 5652 5651 5649 5648 5646
5693 5694 5695 5696 5696 5696 5696 5695 5694 5693 5692 5691 5689 5687 5685 5683 5681 5678 5676 5674 5672 5669 5667 5664 5661 5659 5656 5654 5652 5649 5646 5642 5639 5637 5635 5634 5632 5631
5682 5683 5684 5685 5685 5686 5685 5685 5684 5683 5682 5681 5679 5677 5675 5673 5670 5668 5666 5663 5661 5658 5655 5652 5649 5646 5643 5641 5638 5635 5633 5630 5627 5624 5620 5617 5615 5614